Regional Weather Roundup
Issued by NWS

Home | Current Version | Previous Version | Text Only | Print | Product List | Glossary Off
Versions: 1 2 3 4 5 6 7 8 9 10 11 12 13 14 15 16 17 18 19 20 21 22 23 24 25 26 27 28 29 30 31 32 33 34 35 36 37 38 39 40 41 42 43 44 45 46 47 48 49 50

000
ASUS45 KCYS 171110
RWRWY

WYOMING REGIONAL WEATHER ROUNDUP
NATIONAL WEATHER SERVICE CHEYENNE WY
400 AM MST SAT FEB 17 2018

NOTE:  "FAIR" INDICATES FEW OR NO CLOUDS BELOW 12,000 FEET
WITH NO SIGNIFICANT WEATHER AND/OR OBSTRUCTIONS TO VISIBILITY.

WYZ001-171200-
YELLOWSTONE NATIONAL PARK

CITY           SKY/WX    TMP DP  RH WIND       PRES   REMARKS
LK YELLOWSTONE   N/A     14  10  84 VRB3      29.94R
W YELLOWSTONE  NOT AVBL

$$
WYZ002>013-054>058-071-098>099-171200-
NORTHERN WYOMING

CITY           SKY/WX    TMP DP  RH WIND       PRES   REMARKS
JACKSON        CLOUDY    22  14  71 SW12G22   30.01S WCI  10
CODY           FAIR      20  15  81 SE8       29.92R WCI  10
GREYBULL       CLOUDY    18  16  92 SW5       29.97R WCI  11
WORLAND        MOCLDY     8   4  83 S12       29.96S WCI  -7
SHERIDAN       FLURRIES  26  23  88 W8        29.93R WCI  18
BUFFALO        MOCLDY    23  21  92 N9        29.89R WCI  13
GILLETTE       FAIR      24  21  88 W9        29.88S WCI  14
HULETT         FAIR      27  21  80 W8        29.88R WCI  18
NEWCASTLE      FAIR      19  10  68 N6        29.89R WCI  11

$$
WYZ014>020-022>026-101>103-171200-
CENTRAL WYOMING

CITY           SKY/WX    TMP DP  RH WIND       PRES   REMARKS
BIG PINEY      FAIR      12   9  87 N10       30.03R WCI  -1
PINEDALE       FAIR      14  10  85 CALM      30.03S
DUBOIS           N/A    N/A N/A N/A MISG        N/A
LANDER         FAIR      23   7  50 W13       29.94R WCI  11
RIVERTON       FAIR      25   6  44 W13       29.93R WCI  14
CASPER         FAIR      24  11  57 W15       29.91R WCI  11
DOUGLAS        FAIR      27  14  58 W16       29.88R WCI  15

$$
WYZ021-027>030-104>119-171200-
SOUTHERN WYOMING

CITY           SKY/WX    TMP DP  RH WIND       PRES   REMARKS
EVANSTON       FAIR      25  14  63 SW14      30.11R WCI  13
FORT BRIDGER   CLOUDY    28  15  58 W20G28    30.11R WCI  14
ROCK SPRINGS   CLOUDY    27  13  55 W24       30.04R WCI  12
DIXON          CLOUDY    26  15  61 W8        30.12R WCI  18
RAWLINS        FAIR      22  11  62 W28G39    29.97S WCI   4
SARATOGA       FAIR      23  12  63 W18G29    30.02R WCI   9
LARAMIE        FAIR      20  11  68 W32G41    29.90R WCI   1
CHEYENNE       FAIR      28  11  48 W21G29    29.91R WCI  15
TORRINGTON     FAIR      30  15  53 W13       29.89R WCI  20
PINE BLUFFS    FAIR      32  12  43 MISG      29.91R

$$



USA.gov is the U.S. government's official web portal to all federal, state and local government web resources and services.